Yankton, SD

8:22 PM CDT on June 24, 2017 (GMT -0500)
Gurney Municipal

Weather History for KYKN - October, 2012

Change the Weather History Date:

Thursday, October 4, 2012

  Actual Average Record
Temperature  
Mean Temperature 44 °F -  
Max Temperature 51 °F 68 °F 89 °F (2011)
Min Temperature 37 °F 41 °F 27 °F (1950)
Degree Days  
Heating Degree Days 21    
Moisture  
Dew Point 30 °F    
Average Humidity 57    
Maximum Humidity 75    
Minimum Humidity 41    
Precipitation  
Precipitation 0.00 in - - ()
Sea Level Pressure  
Sea Level Pressure 30.22 in    
Wind  
Wind Speed 22 mph (WNW)    
Max Wind Speed 33 mph    
Max Gust Speed 40 mph    
Visibility 10 miles    
Events      
Averages and records for this station are not official NWS values.
T = Trace of Precipitation, MM = Missing Value Source: NWS Daily Summary

Daily Weather History Graph

Daily Weather History Graph

Search for Another Location

Airport or City:

Trip Planner

Search our weather history database for the weather conditions in past years. The results will help you decide how hot, cold, wet, or windy it might be!

Date:

Astronomy

Oct. 04, 2012 Rise Set
Actual Time 7:30 AM CDT 7:04 PM CDT
Civil Twilight 7:02 AM CDT 7:32 PM CDT
Nautical Twilight 6:29 AM CDT 8:05 PM CDT
Astronomical Twilight 5:56 AM CDT 8:38 PM CDT
Moon 9:34 PM CDT (10/4) 11:55 AM CDT (10/4)
Length of Visible Light 12h 30m
Length of Day
11h 33m
Waning Gibbous, 82% of the Moon is Illuminated
Oct 4
Waning Gibbous
Oct 8
Last Quarter
Oct 15
New
Oct 21
First Quarter
Oct 29
Full

Hourly Weather History & Observations

Time (CDT) Temp. Windchill Dew Point Humidity Pressure Visibility Wind Dir Wind Speed Gust Speed Precip Events Conditions
12:15 AM 51.8 °F - 39.2 °F 62% 30.01 in 10.0 mi WNW 24.2 mph 31.1 mph N/A   Overcast
12:35 AM 51.8 °F - 39.2 °F 62% 30.02 in 10.0 mi WNW 23.0 mph 29.9 mph N/A   Overcast
12:55 AM 51.8 °F - 39.2 °F 62% 30.03 in 10.0 mi WNW 20.7 mph 29.9 mph N/A   Overcast
1:15 AM 50.0 °F - 39.2 °F 66% 30.06 in 10.0 mi WNW 31.1 mph 38.0 mph N/A   Overcast
1:35 AM 48.2 °F - 39.2 °F 71% 30.07 in 10.0 mi WNW 25.3 mph 32.2 mph N/A   Overcast
1:55 AM 48.2 °F - 37.4 °F 66% 30.08 in 10.0 mi West 23.0 mph 31.1 mph N/A   Overcast
2:15 AM 46.4 °F 38.1 °F 37.4 °F 71% 30.09 in 10.0 mi West 24.2 mph 32.2 mph N/A   Overcast
2:35 AM 46.4 °F 37.9 °F 37.4 °F 71% 30.09 in 10.0 mi WNW 25.3 mph 33.4 mph N/A   Overcast
2:55 AM 44.6 °F 36.4 °F 35.6 °F 71% 30.10 in 10.0 mi West 20.7 mph 28.8 mph N/A   Overcast
3:15 AM 44.6 °F 35.5 °F 35.6 °F 71% 30.11 in 10.0 mi WNW 25.3 mph 34.5 mph N/A   Overcast
3:35 AM 44.6 °F 35.3 °F 33.8 °F 66% 30.12 in 10.0 mi West 26.5 mph 32.2 mph N/A   Overcast
3:55 AM 42.8 °F 34.0 °F 32.0 °F 66% 30.12 in 10.0 mi WNW 20.7 mph 27.6 mph N/A   Overcast
4:15 AM 42.8 °F 33.3 °F 32.0 °F 66% 30.11 in 10.0 mi WNW 24.2 mph 36.8 mph N/A   Overcast
4:35 AM 42.8 °F 32.3 °F 33.8 °F 70% 30.12 in 10.0 mi WNW 29.9 mph 39.1 mph N/A   Overcast
4:55 AM 42.8 °F 32.7 °F 33.8 °F 70% 30.12 in 10.0 mi NW 27.6 mph 34.5 mph N/A   Overcast
5:15 AM 42.8 °F 32.3 °F 33.8 °F 70% 30.13 in 10.0 mi WNW 29.9 mph 38.0 mph N/A   Overcast
5:35 AM 42.8 °F 32.7 °F 33.8 °F 70% 30.14 in 10.0 mi WNW 27.6 mph 36.8 mph N/A   Overcast
5:55 AM 42.8 °F 31.8 °F 33.8 °F 70% 30.14 in 10.0 mi WNW 33.4 mph 40.3 mph N/A   Overcast
6:15 AM 42.8 °F 33.3 °F 32.0 °F 66% 30.15 in 10.0 mi WNW 24.2 mph 33.4 mph N/A   Overcast
6:35 AM 42.8 °F 34.8 °F 33.8 °F 70% 30.16 in 10.0 mi WNW 17.3 mph 29.9 mph N/A   Overcast
6:55 AM 41.0 °F 31.9 °F 32.0 °F 70% 30.17 in 10.0 mi WNW 19.6 mph 31.1 mph N/A   Mostly Cloudy
7:15 AM 39.2 °F 28.5 °F 32.0 °F 75% 30.17 in 10.0 mi WNW 24.2 mph 31.1 mph N/A   Partly Cloudy
7:35 AM 39.2 °F 28.7 °F 32.0 °F 75% 30.18 in 10.0 mi WNW 23.0 mph 29.9 mph N/A   Clear
7:55 AM 39.2 °F 29.3 °F 32.0 °F 75% 30.19 in 10.0 mi WNW 20.7 mph 27.6 mph N/A   Partly Cloudy
8:15 AM 41.0 °F 31.4 °F 32.0 °F 70% 30.20 in 10.0 mi WNW 21.9 mph 28.8 mph N/A   Mostly Cloudy
8:35 AM 42.8 °F 33.1 °F 32.0 °F 66% 30.21 in 10.0 mi WNW 25.3 mph 29.9 mph N/A   Overcast
8:55 AM 42.8 °F 33.3 °F 30.2 °F 61% 30.22 in 10.0 mi NW 24.2 mph 32.2 mph N/A   Overcast
9:15 AM 42.8 °F 32.7 °F 30.2 °F 61% 30.23 in 10.0 mi NW 27.6 mph 35.7 mph N/A   Overcast
9:35 AM 44.6 °F 35.9 °F 30.2 °F 57% 30.24 in 10.0 mi NW 23.0 mph 33.4 mph N/A   Overcast
9:55 AM 44.6 °F 35.7 °F 30.2 °F 57% 30.24 in 10.0 mi NW 24.2 mph 32.2 mph N/A   Overcast
10:15 AM 44.6 °F 34.7 °F 30.2 °F 57% 30.24 in 10.0 mi NW 29.9 mph 35.7 mph N/A   Overcast
10:35 AM 46.4 °F 37.5 °F 30.2 °F 53% 30.24 in 10.0 mi NW 27.6 mph 36.8 mph N/A   Mostly Cloudy
10:55 AM 46.4 °F 37.0 °F 30.2 °F 53% 30.25 in 10.0 mi WNW 31.1 mph 36.8 mph N/A   Mostly Cloudy
11:15 AM 48.2 °F - 30.2 °F 50% 30.25 in 10.0 mi WNW 26.5 mph 33.4 mph N/A   Overcast
11:35 AM 48.2 °F - 28.4 °F 46% 30.26 in 10.0 mi NW 25.3 mph 35.7 mph N/A   Overcast
11:55 AM 48.2 °F - 28.4 °F 46% 30.27 in 10.0 mi WNW 26.5 mph 34.5 mph N/A   Overcast
12:15 PM 48.2 °F - 28.4 °F 46% 30.27 in 10.0 mi NW 27.6 mph 35.7 mph N/A   Mostly Cloudy
12:35 PM 50.0 °F - 28.4 °F 43% 30.27 in 10.0 mi NW 27.6 mph 34.5 mph N/A   Mostly Cloudy
12:55 PM 48.2 °F - 28.4 °F 46% 30.28 in 10.0 mi NW 25.3 mph 34.5 mph N/A   Mostly Cloudy
1:35 PM 50.0 °F - 28.4 °F 43% 30.28 in 10.0 mi WNW 24.2 mph 32.2 mph N/A   Scattered Clouds
1:55 PM 50.0 °F - 28.4 °F 43% 30.28 in 10.0 mi NW 21.9 mph 31.1 mph N/A   Scattered Clouds
2:15 PM 51.8 °F - 28.4 °F 41% 30.28 in 10.0 mi NW 24.2 mph 29.9 mph N/A   Scattered Clouds
2:35 PM 51.8 °F - 28.4 °F 41% 30.27 in 10.0 mi WNW 20.7 mph 28.8 mph N/A   Scattered Clouds
2:55 PM 51.8 °F - 28.4 °F 41% 30.26 in 10.0 mi WNW 18.4 mph 28.8 mph N/A   Scattered Clouds
3:15 PM 51.8 °F - 28.4 °F 41% 30.26 in 10.0 mi WNW 19.6 mph 28.8 mph N/A   Mostly Cloudy
3:35 PM 51.8 °F - 28.4 °F 41% 30.26 in 10.0 mi NW 17.3 mph 28.8 mph N/A   Mostly Cloudy
3:55 PM 50.0 °F - 28.4 °F 43% 30.27 in 10.0 mi NW 20.7 mph 28.8 mph N/A   Scattered Clouds
4:15 PM 50.0 °F - 28.4 °F 43% 30.28 in 10.0 mi WNW 19.6 mph 29.9 mph N/A   Mostly Cloudy
4:35 PM 50.0 °F - 28.4 °F 43% 30.27 in 10.0 mi WNW 17.3 mph 26.5 mph N/A   Mostly Cloudy
4:55 PM 50.0 °F - 28.4 °F 43% 30.28 in 10.0 mi WNW 19.6 mph 26.5 mph N/A   Mostly Cloudy
5:15 PM 50.0 °F - 28.4 °F 43% 30.28 in 10.0 mi NW 16.1 mph - N/A   Scattered Clouds
5:35 PM 50.0 °F - 28.4 °F 43% 30.28 in 10.0 mi NW 19.6 mph 24.2 mph N/A   Scattered Clouds
5:55 PM 48.2 °F - 26.6 °F 43% 30.28 in 10.0 mi NW 18.4 mph 24.2 mph N/A   Partly Cloudy
6:15 PM 48.2 °F - 26.6 °F 43% 30.28 in 10.0 mi WNW 13.8 mph 20.7 mph N/A   Clear
6:35 PM 48.2 °F - 26.6 °F 43% 30.29 in 10.0 mi NW 17.3 mph 23.0 mph N/A   Clear
6:55 PM 46.4 °F 40.7 °F 26.6 °F 46% 30.29 in 10.0 mi NW 12.7 mph - N/A   Clear
7:15 PM 44.6 °F 39.7 °F 26.6 °F 49% 30.29 in 10.0 mi NW 9.2 mph - N/A   Clear
7:35 PM 44.6 °F 38.4 °F 26.6 °F 49% 30.29 in 10.0 mi NW 12.7 mph - N/A   Clear
7:55 PM 42.8 °F 38.0 °F 26.6 °F 53% 30.29 in 10.0 mi NW 8.1 mph - N/A   Clear
8:15 PM 41.0 °F 35.8 °F 26.6 °F 57% 30.30 in 10.0 mi WNW 8.1 mph - N/A   Clear
8:35 PM 41.0 °F 35.2 °F 26.6 °F 57% 30.31 in 10.0 mi WNW 9.2 mph - N/A   Clear
8:55 PM 39.2 °F 33.6 °F 26.6 °F 61% 30.31 in 10.0 mi NW 8.1 mph - N/A   Clear
9:15 PM 39.2 °F 33.6 °F 26.6 °F 61% 30.31 in 10.0 mi NW 8.1 mph - N/A   Clear
9:35 PM 37.4 °F 30.8 °F 26.6 °F 65% 30.31 in 10.0 mi NW 9.2 mph - N/A   Clear
9:55 PM 37.4 °F 30.8 °F 24.8 °F 60% 30.31 in 10.0 mi NW 9.2 mph - N/A   Clear
10:15 PM 37.4 °F 30.8 °F 26.6 °F 65% 30.32 in 10.0 mi WNW 9.2 mph - N/A   Clear
10:35 PM 37.4 °F 30.8 °F 24.8 °F 60% 30.32 in 10.0 mi WNW 9.2 mph - N/A   Clear
10:55 PM 37.4 °F 32.1 °F 24.8 °F 60% 30.33 in 10.0 mi WNW 6.9 mph - N/A   Clear
11:15 PM 37.4 °F 32.8 °F 26.6 °F 65% 30.33 in 10.0 mi West 5.8 mph - N/A   Clear
11:35 PM 37.4 °F 32.8 °F 26.6 °F 65% 30.33 in 10.0 mi WSW 5.8 mph - N/A   Clear
11:55 PM 37.4 °F 32.1 °F 24.8 °F 60% 30.33 in 10.0 mi West 6.9 mph - N/A   Clear